AI4ZL Weather Reports


Display with metric or nautical units.
time (UTC)temp
F
wind
direction
speed
MPH
gust
MPH
rain 1hr
in
rain 24hr
in
rain mn
in
humidity
%
barometer
mb
20220705123528 81 209 2.0 3.0 0.00 0.00 0.00 88 1018.2
20220705122518 80 192 1.0 3.0 0.00 0.00 0.00 89 1018.1
20220705121609 79 183 1.0 2.0 0.00 0.00 0.00 90 1018.0
20220705120558 78 177 1.0 1.0 0.00 0.00 0.00 92 1018.1
20220705115549 76 194 2.0 2.0 0.00 0.00 0.00 94 1017.9
20220705114542 75 0.0 1.0 0.00 0.00 0.00 98 1017.9
20220705113528 74 0.0 0.0 0.00 0.00 0.00 98 1017.8
20220705112519 74 0.0 0.0 0.00 0.00 0.00 98 1017.8
20220705111610 74 0.0 0.0 0.00 0.00 0.00 98 1017.8
20220705110600 74 0.0 0.0 0.00 0.00 0.00 98 1017.6
20220705105550 74 0.0 0.0 0.00 0.00 0.00 98 1017.5
20220705104539 74 0.0 0.0 0.00 0.00 0.00 98 1017.4
20220705103529 74 279 0.0 1.0 0.00 0.00 0.00 98 1017.3
20220705102519 73 0.0 0.0 0.00 0.00 0.00 98 1017.3
20220705101611 73 0.0 0.0 0.00 0.00 0.00 98 1017.2
20220705100600 74 0.0 0.0 0.00 0.00 0.00 98 1017.1
20220705095550 74 0.0 0.0 0.00 0.00 0.00 98 1017.2
20220705094540 74 0.0 0.0 0.00 0.00 0.00 98 1017.1
20220705093530 74 0.0 0.0 0.00 0.00 0.00 98 1017.0
20220705083531 74 0.0 0.0 0.00 0.00 0.00 98 1016.9
20220705082521 74 0.0 0.0 0.00 0.00 0.00 97 1016.8
20220705081612 75 0.0 0.0 0.00 0.00 0.00 97 1016.8
20220705080602 74 0.0 0.0 0.00 0.00 0.00 96 1016.9
20220705075552 74 0.0 0.0 0.00 0.00 0.00 96 1016.9
20220705074542 75 0.0 0.0 0.00 0.00 0.00 95 1016.8
20220705073532 75 0.0 0.0 0.00 0.00 0.00 95 1016.9
20220705072522 75 0.0 0.0 0.00 0.00 0.00 94 1016.8
20220705071613 76 0.0 0.0 0.00 0.00 0.00 94 1016.9
20220705070609 76 0.0 0.0 0.00 0.00 0.00 94 1016.9
20220705065552 76 279 0.0 1.0 0.00 0.00 0.00 96 1016.9
20220705063532 75 279 0.0 1.0 0.00 0.00 0.00 97 1016.9
20220705062522 75 0.0 0.0 0.00 0.00 0.00 98 1016.8
20220705061613 75 279 0.0 1.0 0.00 0.00 0.00 97 1017.0
20220705060604 75 0.0 0.0 0.00 0.00 0.00 97 1017.0
20220705055553 76 0.0 0.0 0.00 0.00 0.00 97 1017.0
20220705054543 76 0.0 0.0 0.00 0.00 0.00 97 1017.1
20220705053533 76 0.0 0.0 0.00 0.00 0.00 97 1017.1
20220705052523 76 0.0 0.0 0.00 0.00 0.00 97 1017.0
20220705051614 76 0.0 0.0 0.00 0.00 0.00 97 1017.1
20220705044544 77 279 0.0 1.0 0.00 0.00 0.00 97 1017.3
20220705043534 77 0.0 0.0 0.00 0.00 0.00 97 1017.3
20220705041615 77 0.0 0.0 0.00 0.00 0.00 96 1017.4
20220705040605 77 0.0 0.0 0.00 0.00 0.00 96 1017.4
20220705035555 77 0.0 0.0 0.00 0.00 0.00 95 1017.5
20220705034550 77 0.0 0.0 0.00 0.00 0.00 95 1017.6
20220705033535 77 0.0 0.0 0.00 0.00 0.00 94 1017.9
20220705023535 79 0.0 0.0 0.00 0.00 0.00 91 1017.7
20220705022526 79 0.0 0.0 0.00 0.00 0.00 92 1017.7
20220705021616 80 0.0 0.0 0.00 0.00 0.00 91 1017.3
20220705020606 80 0.0 0.0 0.00 0.00 0.00 89 1017.2
20220705015557 81 0.0 0.0 0.00 0.00 0.00 88 1017.3
20220705014546 82 279 0.0 1.0 0.00 0.00 0.00 87 1017.3
20220705013536 83 0.0 0.0 0.00 0.00 0.00 84 1017.4
20220705012526 84 279 0.0 1.0 0.00 0.00 0.00 84 1017.3
20220705011516 85 0.0 0.0 0.00 0.00 0.00 77 1017.3
20220705010607 86 0.0 0.0 0.00 0.00 0.00 76 1017.2
20220705005557 87 279 0.0 1.0 0.00 0.00 0.00 73 1017.1
20220705004547 88 276 2.0 2.0 0.00 0.00 0.00 71 1016.9
20220705003537 88 274 1.0 2.0 0.00 0.00 0.00 72 1016.9
20220705002528 89 265 1.0 3.0 0.00 0.00 0.00 72 1016.8
20220705001517 89 265 1.0 3.0 0.00 0.00 0.00 70 1016.8
20220705000608 89 272 2.0 3.0 0.00 0.00 0.00 71 1016.7
20220704235558 90 277 3.0 6.0 0.00 0.00 0.00 67 1016.6
20220704234548 90 277 3.0 4.0 0.00 0.00 0.00 66 1016.5
20220704233542 90 272 3.0 4.0 0.00 0.00 0.00 65 1016.5
20220704232528 91 273 3.0 4.0 0.00 0.00 0.00 63 1016.5
20220704231518 92 260 2.0 3.0 0.00 0.00 0.00 62 1016.5
20220704230609 92 234 1.0 4.0 0.00 0.00 0.00 62 1016.7
20220704224551 93 178 1.0 3.0 0.00 0.00 0.00 59 1016.9
20220704223538 92 209 1.0 4.0 0.00 0.00 0.00 60 1016.7
20220704222529 92 279 4.0 7.0 0.00 0.00 0.00 60 1016.8
20220704221518 93 268 2.0 8.0 0.00 0.00 0.00 58 1016.6
20220704220609 93 240 2.0 4.0 0.00 0.00 0.00 61 1016.7
20220704215600 92 252 2.0 7.0 0.00 0.00 0.00 59 1016.7
20220704214549 93 285 3.0 7.0 0.00 0.00 0.00 61 1016.8
20220704213539 93 278 3.0 7.0 0.00 0.00 0.00 62 1016.9
20220704212529 92 272 3.0 7.0 0.00 0.00 0.00 61 1017.0
20220704211519 94 251 2.0 4.0 0.00 0.00 0.00 60 1017.1
20220704210610 93 244 3.0 7.0 0.00 0.00 0.00 61 1017.2
20220704205600 97 211 3.0 4.0 0.00 0.00 0.00 57 1017.3
20220704204550 94 231 0.0 1.0 0.00 0.00 0.00 63 1017.3
20220704203540 91 0.0 1.0 0.00 0.00 0.00 66 1017.3
20220704202530 93 164 0.0 2.0 0.00 0.00 0.00 63 1017.5
20220704201523 92 85 1.0 2.0 0.00 0.00 0.00 63 1017.4
20220704200611 92 250 1.0 4.0 0.00 0.00 0.00 64 1017.6
20220704195601 92 258 3.0 7.0 0.00 0.00 0.00 63 1017.6
20220704194551 92 143 1.0 2.0 0.00 0.00 0.00 65 1017.7
20220704193541 92 193 1.0 3.0 0.00 0.00 0.00 65 1017.9
20220704192531 92 180 1.0 2.0 0.00 0.00 0.00 63 1018.1
20220704190612 91 57 1.0 3.0 0.00 0.00 0.00 62 1018.5
20220704185602 90 281 1.0 3.0 0.00 0.00 0.00 65 1018.7
20220704184553 91 206 1.0 2.0 0.00 0.00 0.00 66 1018.7
20220704183542 94 253 2.0 6.0 0.00 0.00 0.00 61 1019.0
20220704182532 93 206 1.0 4.0 0.00 0.00 0.00 63 1018.9
20220704181522 90 252 1.0 4.0 0.00 0.00 0.00 68 1019.1
20220704180612 91 284 1.0 2.0 0.00 0.00 0.00 64 1019.1
20220704175603 90 176 0.0 2.0 0.00 0.00 0.00 68 1019.1
20220704173542 91 210 1.0 3.0 0.00 0.00 0.00 67 1019.3
20220704164553 91 278 1.0 6.0 0.00 0.00 0.00 68 1019.9
20220704163543 89 194 1.0 4.0 0.00 0.00 0.00 70 1020.0
20220704162533 91 131 1.0 3.0 0.00 0.00 0.00 67 1019.9
20220704161523 90 163 2.0 4.0 0.00 0.00 0.00 69 1019.9
20220704160614 89 139 2.0 3.0 0.00 0.00 0.00 70 1019.9
20220704155604 87 216 1.0 3.0 0.00 0.00 0.00 74 1020.1
20220704154551 87 255 3.0 4.0 0.00 0.00 0.00 76 1020.0
20220704153543 87 276 3.0 4.0 0.00 0.00 0.00 76 1020.1
20220704152531 88 116 2.0 3.0 0.00 0.00 0.00 73 1020.1
20220704151522 86 291 3.0 7.0 0.00 0.00 0.00 79 1020.1
20220704150612 86 279 3.0 7.0 0.00 0.00 0.00 79 1020.1
20220704145602 85 187 1.0 6.0 0.00 0.00 0.00 81 1020.1
20220704144552 85 281 2.0 7.0 0.00 0.00 0.00 81 1020.2
20220704133542 82 217 2.0 7.0 0.00 0.00 0.00 85 1020.1
20220704131522 82 141 1.0 3.0 0.00 0.00 0.00 85 1020.2
20220704125604 80 145 1.0 3.0 0.00 0.00 0.00 89 1020.0
20220704124553 79 133 1.0 2.0 0.00 0.00 0.00 93 1019.8